Home   Weather   Watford   Past weeks

Flag for United Kingdom Past Weather in Watford, England, United Kingdom — Yesterday and Last 2 Weeks

Now
25 °F

Clear.


Feels Like: 25 °F
Forecast: 25 / 42 °F
Wind: 1 mph from Northwest

Location: Northolt

Current Time: Jan 19, 2017 at 7:00:05 am

Latest Report: Jan 19, 2017 at 5:50 am


Visibility: N/A

Pressure: 30.63 "Hg

Humidity: 93%

Dew Point: 23 °F

Location of WatfordLocation

Past Weather in Watford — Graph

°F

Watford Temperature Yesterday

Maximum temperature yesterday: 41 °F (at 1:50 pm)
Minimum temperature yesterday: 23 °F (at 3:50 am)
Average temperature yesterday: 31 °F

High & Low Weather Summary for the Past Weeks

 TemperatureHumidityPressure
High52 °F (Jan 7, 12:50 pm)100% (Jan 5, 7:50 pm)30.69 "Hg (Jan 5, 7:50 pm)
Low23 °F (Jan 6, 3:50 am)42% (Jan 17, 1:50 pm)29.33 "Hg (Jan 12, 5:50 pm)
Average40 °F87%30.24 "Hg
* Reported Jan 4 4:50 am — Jan 19 4:50 am, Watford, Weather by CustomWeather, © 2017

Note: Actual official high and low records may vary slightly from our data, if they occured in-between our weather recording intervals... More about our weather records

Advertising

Watford Weather History for the Previous 24 Hours

Scroll right to see more
 ConditionsComfort  
Time TempWeatherWind HumidityBarometerVisibility
4:50 am
Thu, Jan 19
25 °FClear.2 mph93%30.63 "HgN/A
3:50 am25 °FClear.1 mph93%30.63 "HgN/A
2:50 am25 °FClear.2 mph100%30.63 "HgN/A
1:50 am27 °FClear.1 mph93%30.66 "HgN/A
12:50 am28 °FPassing clouds.1 mph93%30.63 "HgN/A
11:50 pm
Wed, Jan 18
28 °FPassing clouds.1 mph93%30.66 "HgN/A
10:50 pm30 °FClear.1 mph86%30.66 "Hg10 mi
9:50 pm28 °FClear.2 mph93%30.66 "Hg10 mi
8:50 pm30 °FClear.1 mph86%30.66 "Hg10 mi
7:50 pm30 °FClear.No wind86%30.66 "Hg10 mi
6:50 pm30 °FClear.2 mph86%30.66 "Hg10 mi
5:50 pm34 °FClear.1 mph70%30.66 "Hg10 mi
4:50 pm37 °FClear.2 mph65%30.66 "Hg10 mi
3:50 pm41 °FSunny.1 mph49%30.66 "Hg10 mi
2:50 pm41 °FSunny.1 mph49%30.66 "Hg10 mi
1:50 pm41 °FSunny.1 mph53%30.66 "Hg10 mi
12:50 pm39 °FSunny.1 mph61%30.66 "Hg10 mi
11:50 am39 °FSunny.2 mph65%30.69 "Hg10 mi
10:50 am36 °FSunny.1 mph87%30.69 "Hg10 mi
9:50 am30 °FPartly sunny.1 mph93%30.69 "Hg6 mi
8:50 am25 °FIce fog.No wind100%30.69 "Hg6 mi
7:50 am23 °FIce fog.1 mph100%30.66 "Hg4 mi
Weather by CustomWeather, © 2017

See weather overviewHow to use our weather pages